• In Deutschland
  • Länderverzeichnis
  • Für 7 Tage
  • Wassertemperatur
  • Satellitenkarten
  • Wetterkarte
  • Widgets
  • user-avatar
    Anmelden

    Stündliche Wetter Bad Feilnbach

    Heute, 20 Februar, Dienstag

    Zeit Temperatur Niederschläge Wind Luftdruck Luftfeuchtigkeit
    00:00 -4°C° 0 mm 0 m/S 710 mmHg 92%
    01:00 -2°C° 0 mm 1 m/S 709 mmHg 93%
    02:00 -3°C° 0 mm 1 m/S 709 mmHg 93%
    03:00 -4°C° 0 mm 0 m/S 709 mmHg 93%
    04:00 -4°C° 0 mm 0 m/S 709 mmHg 94%
    05:00 -4°C° 0,1 mm 0 m/S 709 mmHg 94%
    06:00 -4°C° 0,1 mm 0 m/S 709 mmHg 93%
    07:00 -2°C° 0 mm 1 m/S 709 mmHg 94%
    08:00 -1°C° 0,1 mm 1 m/S 709 mmHg 92%
    09:00 -1°C° 0,1 mm 1 m/S 709 mmHg 90%
    10:00 0°C° 0,1 mm 1 m/S 709 mmHg 88%
    11:00 0°C° 0,1 mm 1 m/S 708 mmHg 86%
    12:00 +1°C° 0,1 mm 1 m/S 708 mmHg 84%
    13:00 +1°C° 0,1 mm 1 m/S 708 mmHg 83%
    14:00 +1°C° 0,2 mm 1 m/S 708 mmHg 84%
    15:00 -1°C° 0,2 mm 2 m/S 708 mmHg 85%
    16:00 -1°C° 0,2 mm 2 m/S 708 mmHg 86%
    17:00 0°C° 0,2 mm 1 m/S 708 mmHg 89%
    18:00 -1°C° 0,2 mm 1 m/S 708 mmHg 92%
    19:00 -1°C° 0,2 mm 1 m/S 708 mmHg 95%
    20:00 -2°C° 0,1 mm 1 m/S 709 mmHg 96%
    21:00 -2°C° 0,1 mm 1 m/S 709 mmHg 96%
    22:00 -3°C° 0,1 mm 1 m/S 709 mmHg 96%
    23:00 -3°C° 0,1 mm 1 m/S 710 mmHg 96%

    Morgen, 21 Februar, Mittwoch

    Zeit Temperatur Niederschläge Wind Luftdruck Luftfeuchtigkeit
    00:00 -3°C° 0,1 mm 1 m/S 710 mmHg 96%
    01:00 -3°C° 0,1 mm 1 m/S 710 mmHg 96%
    02:00 -3°C° 0,1 mm 1 m/S 710 mmHg 95%
    03:00 -3°C° 0,1 mm 1 m/S 710 mmHg 95%
    04:00 -3°C° 0,1 mm 1 m/S 710 mmHg 95%
    05:00 -3°C° 0,1 mm 1 m/S 710 mmHg 95%
    06:00 -3°C° 0,1 mm 1 m/S 710 mmHg 94%
    07:00 -3°C° 0,1 mm 1 m/S 711 mmHg 94%
    08:00 -2°C° 0,1 mm 1 m/S 711 mmHg 92%
    09:00 -1°C° 0,1 mm 1 m/S 711 mmHg 90%
    10:00 0°C° 0,1 mm 1 m/S 711 mmHg 88%
    11:00 -2°C° 0,1 mm 2 m/S 710 mmHg 87%
    12:00 -1°C° 0,1 mm 2 m/S 710 mmHg 85%
    13:00 +1°C° 0,1 mm 2 m/S 710 mmHg 84%
    14:00 +1°C° 0,1 mm 2 m/S 709 mmHg 84%
    15:00 -1°C° 0,1 mm 2 m/S 709 mmHg 85%
    16:00 -1°C° 0,1 mm 2 m/S 709 mmHg 85%
    17:00 -1°C° 0,1 mm 2 m/S 709 mmHg 87%
    18:00 -2°C° 0,1 mm 2 m/S 709 mmHg 90%
    19:00 -3°C° 0,1 mm 2 m/S 710 mmHg 92%
    20:00 -3°C° 0,1 mm 2 m/S 710 mmHg 92%
    21:00 -4°C° 0,1 mm 2 m/S 710 mmHg 93%
    22:00 -4°C° 0,1 mm 2 m/S 710 mmHg 93%
    23:00 -4°C° 0,1 mm 2 m/S 710 mmHg 93%

    übermorgen, 22 Februar, Donnerstag

    Zeit Temperatur Niederschläge Wind Luftdruck Luftfeuchtigkeit
    00:00 -4°C° 0,1 mm 2 m/S 710 mmHg 93%
    01:00 -5°C° 0,1 mm 2 m/S 709 mmHg 93%
    02:00 -5°C° 0,1 mm 2 m/S 709 mmHg 92%
    03:00 -5°C° 0,1 mm 2 m/S 709 mmHg 92%
    04:00 -5°C° 0,1 mm 2 m/S 709 mmHg 91%
    05:00 -6°C° 0,1 mm 3 m/S 708 mmHg 91%
    06:00 -6°C° 0,1 mm 3 m/S 708 mmHg 91%
    07:00 -6°C° 0,1 mm 3 m/S 708 mmHg 90%
    08:00 -6°C° 0,1 mm 3 m/S 708 mmHg 89%
    09:00 -5°C° 0,1 mm 3 m/S 708 mmHg 87%
    10:00 -4°C° 0,1 mm 3 m/S 708 mmHg 86%
    11:00 -4°C° 0,1 mm 3 m/S 708 mmHg 85%
    12:00 -2°C° 0,1 mm 3 m/S 708 mmHg 84%
    13:00 -2°C° 0,1 mm 4 m/S 708 mmHg 84%
    14:00 -2°C° 0,1 mm 4 m/S 707 mmHg 84%
    15:00 -2°C° 0,1 mm 4 m/S 707 mmHg 85%
    16:00 -2°C° 0,1 mm 4 m/S 707 mmHg 86%
    17:00 -2°C° 0,1 mm 3 m/S 707 mmHg 88%
    18:00 -2°C° 0,1 mm 3 m/S 708 mmHg 89%
    19:00 -4°C° 0,1 mm 3 m/S 708 mmHg 91%
    20:00 -4°C° 0 mm 3 m/S 708 mmHg 91%
    21:00 -5°C° 0 mm 3 m/S 708 mmHg 91%
    22:00 -4°C° 0 mm 2 m/S 709 mmHg 91%
    23:00 -4°C° 0 mm 2 m/S 709 mmHg 91%

    23 Februar, Freitag

    Zeit Temperatur Niederschläge Wind Luftdruck Luftfeuchtigkeit
    00:00 -4°C° 0 mm 2 m/S 709 mmHg 91%
    01:00 -5°C° 0 mm 2 m/S 709 mmHg 91%
    02:00 -5°C° 0 mm 2 m/S 709 mmHg 91%
    03:00 -5°C° 0 mm 2 m/S 708 mmHg 90%
    04:00 -5°C° 0 mm 2 m/S 708 mmHg 90%
    05:00 -5°C° 0 mm 2 m/S 708 mmHg 90%
    06:00 -5°C° 0 mm 2 m/S 709 mmHg 90%
    07:00 -5°C° 0 mm 2 m/S 709 mmHg 90%
    08:00 -4°C° 0 mm 2 m/S 709 mmHg 89%
    09:00 -4°C° 0 mm 3 m/S 709 mmHg 87%
    10:00 -2°C° 0 mm 3 m/S 709 mmHg 86%
    11:00 -2°C° 0 mm 3 m/S 709 mmHg 85%
    12:00 -1°C° 0 mm 3 m/S 709 mmHg 84%
    13:00 0°C° 0 mm 3 m/S 709 mmHg 84%
    14:00 0°C° 0 mm 3 m/S 709 mmHg 84%
    15:00 0°C° 0 mm 3 m/S 709 mmHg 84%
    16:00 0°C° 0 mm 3 m/S 709 mmHg 85%
    17:00 -1°C° 0 mm 3 m/S 710 mmHg 87%
    18:00 -1°C° 0 mm 3 m/S 710 mmHg 88%
    19:00 -2°C° 0 mm 3 m/S 710 mmHg 90%
    20:00 -4°C° 0 mm 3 m/S 710 mmHg 90%
    21:00 -4°C° 0 mm 3 m/S 711 mmHg 89%
    22:00 -5°C° 0 mm 3 m/S 711 mmHg 89%
    23:00 -5°C° 0 mm 3 m/S 711 mmHg 88%

    24 Februar, Samstag

    Zeit Temperatur Niederschläge Wind Luftdruck Luftfeuchtigkeit
    00:00 -5°C° 0 mm 3 m/S 711 mmHg 88%
    01:00 -5°C° 0 mm 3 m/S 711 mmHg 87%
    02:00 -6°C° 0 mm 3 m/S 711 mmHg 86%
    03:00 -6°C° 0 mm 3 m/S 711 mmHg 86%
    04:00 -6°C° 0 mm 3 m/S 711 mmHg 85%
    05:00 -6°C° 0 mm 3 m/S 711 mmHg 85%
    06:00 -6°C° 0 mm 3 m/S 711 mmHg 85%
    07:00 -7°C° 0 mm 3 m/S 711 mmHg 85%
    08:00 -5°C° 0 mm 3 m/S 711 mmHg 83%
    09:00 -4°C° 0 mm 3 m/S 711 mmHg 80%
    10:00 -3°C° 0 mm 4 m/S 711 mmHg 78%
    11:00 -2°C° 0 mm 4 m/S 711 mmHg 77%
    12:00 -1°C° 0 mm 4 m/S 711 mmHg 76%
    13:00 0°C° 0 mm 4 m/S 711 mmHg 75%
    14:00 -1°C° 0 mm 4 m/S 710 mmHg 75%
    15:00 -1°C° 0 mm 4 m/S 710 mmHg 74%
    16:00 -1°C° 0 mm 4 m/S 710 mmHg 74%
    17:00 -3°C° 0 mm 4 m/S 710 mmHg 75%
    18:00 -4°C° 0 mm 4 m/S 711 mmHg 76%
    19:00 -5°C° 0 mm 4 m/S 711 mmHg 77%
    20:00 -5°C° 0 mm 4 m/S 711 mmHg 76%
    21:00 -7°C° 0 mm 4 m/S 711 mmHg 76%
    22:00 -7°C° 0 mm 4 m/S 711 mmHg 76%
    23:00 -7°C° 0 mm 3 m/S 711 mmHg 77%

    25 Februar, Sonntag

    Zeit Temperatur Niederschläge Wind Luftdruck Luftfeuchtigkeit
    00:00 -7°C° 0 mm 3 m/S 711 mmHg 77%
    01:00 -8°C° 0 mm 3 m/S 711 mmHg 78%
    02:00 -8°C° 0 mm 3 m/S 711 mmHg 79%
    03:00 -9°C° 0 mm 3 m/S 711 mmHg 79%
    04:00 -9°C° 0 mm 3 m/S 711 mmHg 80%
    05:00 -10°C° 0 mm 3 m/S 711 mmHg 81%
    06:00 -10°C° 0 mm 3 m/S 711 mmHg 81%
    07:00 -12°C° 0 mm 3 m/S 711 mmHg 81%
    08:00 -10°C° 0 mm 3 m/S 711 mmHg 80%
    09:00 -9°C° 0 mm 3 m/S 711 mmHg 79%
    10:00 -9°C° 0 mm 3 m/S 711 mmHg 77%
    11:00 -8°C° 0 mm 3 m/S 710 mmHg 75%
    12:00 -8°C° 0 mm 4 m/S 710 mmHg 73%
    13:00 -8°C° 0 mm 4 m/S 710 mmHg 71%
    14:00 -8°C° 0,1 mm 4 m/S 710 mmHg 71%
    15:00 -8°C° 0,1 mm 4 m/S 710 mmHg 72%
    16:00 -8°C° 0,1 mm 4 m/S 710 mmHg 72%
    17:00 -9°C° 0,1 mm 4 m/S 710 mmHg 74%
    18:00 -9°C° 0,1 mm 3 m/S 710 mmHg 77%
    19:00 -10°C° 0,1 mm 3 m/S 711 mmHg 80%
    20:00 -10°C° 0,1 mm 3 m/S 711 mmHg 80%
    21:00 -12°C° 0,1 mm 3 m/S 711 mmHg 80%
    22:00 -12°C° 0,1 mm 3 m/S 711 mmHg 81%
    23:00 -12°C° 0,1 mm 3 m/S 711 mmHg 81%
    Mehr zeigen